{"data":{"norad_id":62637,"intl_designator":"2025-009AE","name":"FLOCK 4G-24","alt_names":[],"object_type":"PAYLOAD","status":"ACTIVE","operator":null,"country":"US","launch_date":"2025-01-14","launch_site_code":"AFWTR","launch_vehicle":null,"mission":null,"orbit_class":"UNKNOWN","rcs_meters":null,"size_class":null,"mass_kg":null,"dimensions":null,"purposes":["earth_obs"],"wikipedia_slug":null,"has_3d_model":false,"image_url":null,"decayed_at":null,"tle_current":{"epoch":"2026-09-19T11:22:43.247424Z","epoch_age_seconds":102749,"freshness":"FRESH","line1":"1 62637U 25009AE  26262.47411166  .00007265  00000+0  24146-3 0  9997","line2":"2 62637  97.3967 344.4766 0001936 342.6198  17.4977 15.31486097 93352","mean_motion":15.31486097,"eccentricity":0.0001936,"inclination_deg":97.3967,"raan_deg":344.4766,"arg_perigee_deg":342.6198,"mean_anomaly_deg":17.4977,"bstar":0.00024146,"rev_number":9335,"period_min":94.026318803729,"perigee_km":470.05163710573,"apogee_km":472.70376919879,"semimajor_km":6849.5147031523,"source":"CELESTRAK","updated_at":"2026-09-20T09:00:34.718996Z"}}}